Regional Weather Roundup
Issued by NWS

Home | Current Version | Previous Version | Graphics & Text | Print | Product List | Glossary Off
Versions: 1 2 3 4 5 6 7 8 9 10 11 12 13 14 15 16 17 18 19 20 21 22 23 24 25 26 27 28 29 30 31 32 33 34 35 36 37 38 39 40 41 42 43 44 45 46 47 48 49 50

000
ASUS43 KTOP 251008
RWRKS

WEATHER ROUNDUP FOR KANSAS
NATIONAL WEATHER SERVICE GOODLAND KS
500 AM CDT SUN SEP 25 2016

NOTE:  "FAIR" INDICATES FEW OR NO CLOUDS BELOW 12,000 FEET WITH NO
SIGNIFICANT WEATHER AND/OR OBSTRUCTIONS TO VISIBILITY.

KSZ001>006-013>018-027>032-041>047-251100-
NORTHWEST KANSAS

CITY           SKY/WX    TMP DP  RH WIND       PRES   REMARKS
GOODLAND       CLEAR     46  40  79 NW13      30.27R
HAYS           PTCLDY    55  41  58 N12       30.14S
HILL CITY      CLEAR     54  44  69 NW8       30.18R
RUSSELL        MOCLDY    55  50  83 NW10      30.13R
$$

KSZ061>065-074>080-084>089-251100-
SOUTHWEST KANSAS

CITY           SKY/WX    TMP DP  RH WIND       PRES   REMARKS
DODGE CITY     CLEAR     53  49  86 N13       30.16R
ELKHART          N/A     55  37  50 N15         N/A
GARDEN CITY    CLEAR     55  42  61 N20G26    30.19R
GREAT BEND     PTCLDY    57  45  62 N17       30.13R
LIBERAL        PTCLDY    57  52  82 N22       30.18R
PRATT          MOCLDY    61  60  98 NW12      30.10R
$$

KSZ066>073-081>083-090>101-251100-
SOUTHEAST KANSAS

CITY           SKY/WX    TMP DP  RH WIND       PRES   REMARKS
CHANUTE        CLOUDY    68  67  96 SE5       30.03R
COFFEYVILLE    CLOUDY    69  66  90 E6        30.03R
HUTCHINSON     CLOUDY    67  66  97 CALM      30.08R
MEDICINE LODGE   N/A     66  65  96 CALM        N/A
NEWTON         LGT RAIN N/A N/A N/A S6        30.07F
PARSONS        CLOUDY    69  66  90 CALM      30.04R
WICHITA INTL   LGT RAIN  67  67 100 S3        30.04F
WICHITA JABRA  LGT RAIN  66  66 100 SW3       30.05S
WICHITA MCCONL CLOUDY    67  64  90 NW5       30.04F
WINFIELD       LGT RAIN  67  67 100 N5        30.05F
$$

KSZ007>012-019>026-033>040-048>060-102>105-251100-
NORTHEAST KANSAS

CITY           SKY/WX    TMP DP  RH WIND       PRES   REMARKS
CONCORDIA      CLOUDY    58  52  80 N9        30.11R
EMPORIA        RAIN      67  66  97 CALM      30.05R FOG
LAWRENCE       CLOUDY    68  67  96 W6        30.03S
MANHATTAN      LGT RAIN  69  68  96 S3        30.05R
MARYSVILLE     CLOUDY    68  68 100 SW6       30.04R
OLATHE IND     PTCLDY    68  66  93 SW5       30.03R
OLATHE EXE     MOCLDY    67  66  97 SW5       30.03R
SALINA         CLOUDY    69  66  90 SW7       30.08R
TOPEKA BILLARD CLOUDY    68  67  96 SW3       30.04R
TOPEKA FORBES    N/A    N/A N/A N/A MISG      30.05R
$$



USA.gov is the U.S. government's official web portal to all federal, state and local government web resources and services.